West Plains, MO

5:52 PM CST on November 12, 2019 (GMT -0600)
West Plains Municipal

Weather History for KUNO - October, 2019

Change the Weather History Date:

Monday, October 21, 2019

  Actual Average Record
Temperature  
Mean Temperature 60 °F 56 °F  
Max Temperature 68 °F 68 °F 87 °F (1978)
Min Temperature 51 °F 44 °F 22 °F (1952)
Degree Days  
Heating Degree Days 5 10  
Month to date heating degree days 135 150  
Since 1 July heating degree days 139 192  
Cooling Degree Days 0 0  
Month to date cooling degree days 50 20  
Year to date cooling degree days 1607 1348  
Growing Degree Days 10 (Base 50)    
Moisture  
Dew Point 52 °F    
Average Humidity 65    
Maximum Humidity 90    
Minimum Humidity 40    
Precipitation  
Precipitation 0.60 in 0.14 in 0.60 in (2019)
Month to date precipitation 5.26 2.62  
Year to date precipitation 52.66 36.78  
Sea Level Pressure  
Sea Level Pressure 29.66 in    
Wind  
Wind Speed 11 mph (SW)    
Max Wind Speed 38 mph    
Max Gust Speed 57 mph    
Visibility 9 miles    
Events Fog , Rain , Thunderstorm    
T = Trace of Precipitation, MM = Missing Value Source: NWS Daily Summary

Daily Weather History Graph

Daily Weather History Graph

Search for Another Location

Airport or City:

Astronomy

Oct. 21, 2019 Rise Set
Actual Time 7:20 AM CDT 6:23 PM CDT
Civil Twilight 6:54 AM CDT 6:49 PM CDT
Nautical Twilight 6:23 AM CDT 7:19 PM CDT
Astronomical Twilight 5:53 AM CDT 7:49 PM CDT
Moon No Moon Rise 2:33 PM CDT (10/21)
Length of Visible Light 11h 55m
Length of Day
11h 02m
Waning Gibbous, 48% of the Moon is Illuminated
Oct 21
Waning Gibbous
Oct 27
New
Nov 4
First Quarter
Nov 12
Full
Nov 19
Last Quarter

Hourly Weather History & Observations

Time (CDT) Temp. Dew Point Humidity Pressure Visibility Wind Dir Wind Speed Gust Speed Precip Events Conditions
12:28 AM 63.0 °F 59.0 °F 87% 29.65 in 10.0 mi ESE 9.2 mph - N/A   Overcast
12:51 AM 64.4 °F 60.8 °F 88% 29.63 in 10.0 mi ESE 10.4 mph - N/A   Overcast
12:53 AM 64.0 °F 61.0 °F 90% 29.60 in 10.0 mi ESE 9.2 mph - N/A   Overcast
1:06 AM 64.9 °F 61.0 °F 87% 29.62 in 10.0 mi ESE 11.5 mph - N/A   Overcast
1:36 AM 64.9 °F 62.1 °F 90% 29.59 in 8.0 mi SE 12.7 mph 21.9 mph N/A   Overcast
1:53 AM 66.0 °F 63.0 °F 90% 29.54 in 6.0 mi SSE 13.8 mph 23.0 mph N/A   Overcast
2:03 AM 66.0 °F 64.0 °F 93% 29.56 in 5.0 mi SSE 17.3 mph 27.6 mph N/A   Overcast
2:26 AM 68.0 °F 66.0 °F 93% 29.57 in 4.0 mi South 17.3 mph 27.6 mph 0.03 in Rain , Thunderstorm Light Thunderstorms and Rain
2:31 AM 68.0 °F 66.0 °F 93% 29.57 in 1.8 mi South 18.4 mph 27.6 mph 0.17 in Rain , Thunderstorm Heavy Thunderstorms and Rain
2:42 AM 60.1 °F 57.9 °F 93% 29.66 in 0.5 mi West 28.8 mph 56.4 mph 0.50 in Fog , Rain , Thunderstorm Heavy Thunderstorms and Rain
2:49 AM 57.2 °F 55.4 °F 94% 29.65 in 1.2 mi West 13.8 mph 46.0 mph 0.54 in Rain , Thunderstorm Heavy Thunderstorms and Rain
2:53 AM 57.9 °F 55.9 °F 93% 29.63 in 3.0 mi West 17.3 mph 33.4 mph 0.54 in Rain , Thunderstorm Heavy Thunderstorms and Rain
2:55 AM 57.9 °F 55.9 °F 93% 29.65 in 4.0 mi West 13.8 mph 31.1 mph 0.01 in Rain , Thunderstorm Thunderstorms and Rain
3:09 AM 57.9 °F 55.9 °F 93% 29.67 in 10.0 mi SW 10.4 mph 21.9 mph 0.01 in Rain , Thunderstorm Light Rain
3:19 AM 57.9 °F 55.9 °F 93% 29.67 in 10.0 mi SW 8.1 mph 20.7 mph 0.02 in Rain Light Rain
3:34 AM 57.9 °F 55.9 °F 93% 29.65 in 10.0 mi South 5.8 mph - 0.03 in Rain Light Rain
3:41 AM 57.9 °F 55.9 °F 93% 29.65 in 10.0 mi SSE 5.8 mph - 0.03 in   Overcast
3:51 AM 57.2 °F 55.4 °F 94% 29.64 in 10.0 mi South 4.6 mph - 0.03 in   Overcast
3:53 AM 57.9 °F 55.9 °F 93% 29.61 in 10.0 mi South 3.5 mph - 0.03 in   Overcast
4:53 AM 57.0 °F 55.9 °F 96% 29.55 in 10.0 mi SSE 5.8 mph - 0.02 in Rain Light Rain
5:53 AM 57.9 °F 55.9 °F 93% 29.56 in 10.0 mi SSW 6.9 mph - 0.01 in   Scattered Clouds
6:53 AM 59.0 °F 55.9 °F 90% 29.59 in 10.0 mi SW 8.1 mph - N/A   Mostly Cloudy
7:09 AM 59.0 °F 57.0 °F 93% 29.61 in 10.0 mi SW 9.2 mph - N/A   Overcast
7:17 AM 59.0 °F 57.0 °F 93% 29.61 in 10.0 mi SW 9.2 mph - N/A   Overcast
7:41 AM 60.1 °F 57.0 °F 90% 29.61 in 10.0 mi SW 10.4 mph 19.6 mph N/A   Overcast
7:53 AM 60.1 °F 57.0 °F 90% 29.59 in 10.0 mi WSW 11.5 mph 21.9 mph N/A   Overcast
8:13 AM 59.0 °F 57.0 °F 93% 29.62 in 10.0 mi WSW 10.4 mph 18.4 mph N/A   Overcast
8:29 AM 59.0 °F 55.9 °F 90% 29.64 in 10.0 mi WSW 8.1 mph 20.7 mph N/A   Mostly Cloudy
8:53 AM 59.0 °F 55.9 °F 90% 29.64 in 10.0 mi SW 10.4 mph - N/A   Scattered Clouds
9:20 AM 59.0 °F 55.9 °F 90% 29.66 in 10.0 mi WSW 9.2 mph - N/A   Mostly Cloudy
9:38 AM 59.0 °F 54.0 °F 83% 29.67 in 10.0 mi WSW 15.0 mph 25.3 mph N/A   Mostly Cloudy
9:46 AM 59.0 °F 53.1 °F 81% 29.68 in 10.0 mi WSW 13.8 mph 25.3 mph N/A   Scattered Clouds
9:53 AM 57.9 °F 53.1 °F 84% 29.67 in 10.0 mi West 15.0 mph 24.2 mph N/A   Partly Cloudy
10:53 AM 55.9 °F 41.0 °F 57% 29.69 in 10.0 mi West 18.4 mph 35.7 mph N/A   Clear
11:53 AM 59.0 °F 41.0 °F 51% 29.70 in 10.0 mi WSW 16.1 mph 27.6 mph N/A   Clear
12:53 PM 61.0 °F 41.0 °F 48% 29.70 in 10.0 mi West 15.0 mph 26.5 mph N/A   Clear
1:53 PM 63.0 °F 41.0 °F 45% 29.69 in 10.0 mi WSW 13.8 mph 25.3 mph N/A   Clear
2:53 PM 64.0 °F 42.1 °F 45% 29.69 in 10.0 mi SW 17.3 mph 24.2 mph N/A   Clear
3:53 PM 64.9 °F 39.9 °F 40% 29.70 in 10.0 mi WSW 16.1 mph 26.5 mph N/A   Clear
4:53 PM 64.0 °F 39.0 °F 40% 29.72 in 10.0 mi WSW 12.7 mph 21.9 mph N/A   Clear
5:53 PM 61.0 °F 37.9 °F 42% 29.74 in 10.0 mi West 8.1 mph - N/A   Clear
6:53 PM 57.0 °F 37.9 °F 49% 29.77 in 10.0 mi West 8.1 mph - N/A   Clear
7:53 PM 55.9 °F 37.9 °F 51% 29.80 in 10.0 mi WSW 6.9 mph - N/A   Clear
8:53 PM 53.1 °F 37.9 °F 57% 29.82 in 10.0 mi SW 5.8 mph - N/A   Clear
9:53 PM 54.0 °F 37.9 °F 55% 29.84 in 10.0 mi SW 9.2 mph 18.4 mph N/A   Clear
10:53 PM 53.1 °F 37.9 °F 57% 29.88 in 10.0 mi WSW 11.5 mph - N/A   Clear
11:53 PM 51.1 °F 37.0 °F 59% 29.88 in 10.0 mi West 9.2 mph - N/A   Clear